Location: Newark
(47.4833°N, 7.5167°E)
Time: 15:01:36
(UTC+00:00)

N. Korean satellite - Visible Passes

Search period start: 17 October 2019 00:00
Search period end: 27 October 2019 00:00
Orbit: 455 x 508 km, 97.2° (Epoch: 16 October)

Date Brightness Start Highest point End Pass type
(mag) Time Alt. Az. Time Alt. Az. Time Alt. Az.
17 Oct 10.0 04:31:52 10° NE 04:34:12 16° E 04:36:32 10° SE visible
19 Oct 7.7 05:13:42 10° NNE 05:17:13 50° E 05:20:46 10° S visible
19 Oct 9.8 17:26:35 10° SW 17:29:06 19° W 17:31:38 10° NW visible
20 Oct 9.2 04:48:46 10° NE 04:51:49 25° E 04:54:54 10° SSE visible
20 Oct 8.3 17:00:26 10° SSW 17:03:38 37° W 17:06:54 10° NNW visible
21 Oct 10.2 04:24:25 10° ENE 04:26:20 14° E 04:28:16 10° ESE visible
22 Oct 10.2 17:45:16 10° WSW 17:46:43 12° W 17:48:10 10° WNW visible
23 Oct 8.2 05:05:56 10° NNE 05:09:23 40° E 05:12:52 10° S visible
23 Oct 9.3 17:18:23 10° SSW 17:21:11 23° W 17:24:02 10° NW visible
24 Oct 9.5 04:41:06 10° NE 04:43:57 21° E 04:46:49 10° SE visible
24 Oct 7.8 16:52:26 10° S 16:55:45 46° W 16:59:09 10° NNW visible
25 Oct 10.4 04:17:09 10° ENE 04:18:25 11° E 04:19:42 10° ESE visible
26 Oct 7.1 05:23:13 10° NNE 05:26:53 68° ESE 05:30:34 10° S visible
26 Oct 10.0 17:36:42 10° SW 17:38:45 15° W 17:40:51 10° NW visible
